Details From KLAS - Mc Carran Intl
To KPSP - Palm Springs Intl
Flight Number -
Tags Generated
Created
Modified
Stats Distance 150 nm / 277 km
Max Altitude 0 ft / 0 m
Waypoints 2
Social Downloads 2
Likes 0
Share VATSIM

Download

Looking for another format? Having issues loading an existing format? Contact us
Advertisement - Login to hide

Notes

Generated

Route

KLAS KPSP

ID Type Via Altitude Latitude Longitude Leg Dist Tot Dist Heading (true) Name
O KLAS APT - 0 ft / 0 m 36.07533˚ -115.17037˚ - 0 nm - -
O KPSP APT - 0 ft / 0 m 33.83517˚ -116.50967˚ 149 nm 149 nm 206° / 206° -

Altitude Profile

Advertisement - Login to hide

KLAS

Details ICAO KLAS (LAS)
Name Mc Carran Intl
Region United States
Timezone America/Los_Angeles (UTC-8.0)
Stats Elevation 2,141 ft / 653 m (AMSL)
Location 36.080975° -115.153446°
Runways 4
Magnetic Variation 11.655° E

METAR

KLAS 160256Z 22003KT 10SM SCT250 12/M08 A3001 RMK AO2 SLP161 T01171083 58016

Decode

TAF

KLAS 160304Z 1603/1706 VRB05KT P6SM SCT250 FM160700 34006KT P6SM BKN200 FM161500 VRB05KT P6SM SCT100 BKN120 FM170000 35011KT P6SM SCT080 BKN120 FM170400 35014G25KT P6SM SCT080 BKN100

Decode

Departure Runways

ID Width Length Bearing (true) Bearing (mag) Surface Threshold Offset Overrun Length
01L 151 ft / 46 m 9,783 ft / 2,982 m 24.85° 13.20° Concrete 584 ft / 178 m 410 ft / 125 m
01R 151 ft / 46 m 9,791 ft / 2,984 m 24.84° 13.19° Concrete 492 ft / 150 m 394 ft / 120 m
07L 151 ft / 46 m 14,833 ft / 4,521 m 89.89° 78.24° Asphalt 2,477 ft / 755 m 374 ft / 114 m
07R 151 ft / 46 m 10,503 ft / 3,201 m 89.92° 78.27° Asphalt 0 ft / 0 m 390 ft / 119 m
19L 151 ft / 46 m 9,791 ft / 2,984 m 204.84° 193.19° Concrete 879 ft / 268 m 410 ft / 125 m
19R 151 ft / 46 m 9,783 ft / 2,982 m 204.86° 193.21° Concrete 771 ft / 235 m 410 ft / 125 m
25L 151 ft / 46 m 10,503 ft / 3,201 m 269.94° 258.29° Asphalt 0 ft / 0 m 410 ft / 125 m
25R 151 ft / 46 m 14,833 ft / 4,521 m 269.92° 258.27° Asphalt 1,398 ft / 426 m 623 ft / 190 m

KPSP

Details ICAO KPSP (PSP)
Name Palm Springs Intl
Region United States
Timezone America/Los_Angeles (UTC-8.0)
Stats Elevation 477 ft / 145 m (AMSL)
Location 33.829677° -116.506218°
Runways 2
Magnetic Variation 11.579° E

METAR

KPSP 160253Z 32004KT 10SM CLR 17/M04 A3002 RMK AO2 SLP164 T01671044 58005

Decode

TAF

TAF AMD KPSP 160332Z 1604/1624 VRB06KT P6SM BKN250= TAF AMD KTRM 160332Z 1604/1624 VRB06KT P6SM BKN250

Decode

Destination Runways

ID Width Length Bearing (true) Bearing (mag) Surface Threshold Offset Overrun Length
13L 75 ft / 23 m 4,958 ft / 1,511 m 143.52° 131.94° Asphalt 0 ft / 0 m 151 ft / 46 m
13R 151 ft / 46 m 10,012 ft / 3,052 m 143.52° 131.94° Asphalt 2,999 ft / 914 m 200 ft / 61 m
31L 151 ft / 46 m 10,012 ft / 3,052 m 323.53° 311.95° Asphalt 1,499 ft / 457 m 200 ft / 61 m
31R 75 ft / 23 m 4,958 ft / 1,511 m 323.53° 311.95° Asphalt 0 ft / 0 m 151 ft / 46 m

Popular Alternatives